CW0262 Weather Reports


Display with metric or nautical units.
time (UTC)temp
F
wind
direction
speed
MPH
gust
MPH
rain 1hr
in
rain 24hr
in
rain mn
in
humidity
%
barometer
mb
20260504050704 73 43 3.0 8.0 0.00 0.83 0.00 100 1015.2
20260504050204 73 41 5.0 8.0 0.00 0.83 0.00 100 1015.2
20260504044704 73 65 6.0 8.0 0.00 0.83 0.00 100 1015.2
20260504043704 74 71 6.0 9.0 0.00 0.83 0.00 100 1015.2
20260504043203 74 62 5.0 10.0 0.00 0.83 0.00 100 1015.2
20260504041704 74 42 6.0 8.0 0.00 0.83 0.00 100 1015.2
20260504041204 74 63 5.0 6.0 0.00 0.83 0.00 99 1015.2
20260504040703 74 105 6.0 9.0 0.00 0.83 0.00 97 1015.2
20260504040204 74 86 3.0 8.0 0.00 0.83 0.00 96 1015.2
20260504034703 74 61 3.0 6.0 0.00 0.83 0.83 95 1016.2
20260504034204 74 52 2.0 6.0 0.00 0.83 0.83 95 1016.2
20260504033704 74 60 3.0 5.0 0.00 0.83 0.83 95 1016.2
20260504033204 74 79 3.0 8.0 0.00 0.83 0.83 95 1016.2
20260504031704 74 68 3.0 6.0 0.00 0.83 0.83 95 1016.2
20260504031204 74 84 3.0 6.0 0.00 0.83 0.83 95 1015.4
20260504030703 74 62 5.0 8.0 0.00 0.83 0.83 96 1015.2
20260504030204 74 98 4.0 8.0 0.00 0.83 0.83 95 1015.2
20260504024704 74 72 4.0 6.0 0.00 0.83 0.83 96 1015.2
20260504024204 74 75 5.0 8.0 0.00 0.83 0.83 95 1015.2
20260504023704 73 68 5.0 8.0 0.00 0.83 0.83 98 1015.2
20260504023205 73 75 6.0 8.0 0.00 0.83 0.83 98 1015.2
20260504021205 73 78 6.0 8.0 0.00 0.83 0.83 100 1015.2
20260504020705 73 81 5.0 8.0 0.00 0.83 0.83 100 1015.2
20260504020204 73 75 5.0 9.0 0.00 0.83 0.83 100 1015.2
20260504014703 73 98 3.0 6.0 0.00 0.83 0.83 100 1015.2
20260504014204 72 84 3.0 8.0 0.00 0.83 0.83 100 1015.2
20260504013705 72 79 4.0 7.0 0.00 0.83 0.83 100 1015.2
20260504013204 72 87 3.0 8.0 0.00 0.83 0.83 100 1015.2
20260504011704 72 87 4.0 8.0 0.00 0.83 0.83 100 1015.2
20260504011204 72 79 5.0 6.0 0.00 0.83 0.83 100 1015.2
20260504010704 72 66 3.0 6.0 0.00 0.83 0.83 100 1015.2
20260504010204 72 88 5.0 7.0 0.00 0.83 0.83 100 1015.2
20260504004703 72 87 3.0 6.0 0.00 0.83 0.83 100 1015.2
20260504004204 72 79 5.0 8.0 0.00 0.83 0.83 100 1015.2
20260504003204 72 75 3.0 10.0 0.00 0.83 0.83 100 1015.2
20260504001703 72 66 6.0 9.0 0.00 0.83 0.83 100 1015.2
20260504000704 72 63 5.0 8.0 0.00 0.83 0.83 100 1015.2
20260504000205 72 86 5.0 9.0 0.00 0.83 0.83 100 1015.2
20260503234203 71 79 4.0 8.0 0.00 0.83 0.83 100 1014.2
20260503233204 71 80 5.0 8.0 0.00 0.83 0.83 100 1014.2
20260503231706 71 65 5.0 8.0 0.00 0.83 0.83 100 1014.2
20260503231203 71 79 5.0 9.0 0.00 0.83 0.83 100 1014.2
20260503230704 71 78 6.0 9.0 0.00 0.83 0.83 100 1014.2
20260503230204 71 50 7.0 12.0 0.00 0.83 0.83 100 1014.2
20260503224705 72 73 6.0 10.0 0.00 0.83 0.83 100 1014.2
20260503224204 71 69 6.0 8.0 0.00 0.83 0.83 100 1014.2
20260503223704 72 46 6.0 8.0 0.00 0.83 0.83 100 1014.2
20260503223204 71 53 6.0 9.0 0.00 0.83 0.83 100 1014.2
20260503221703 71 60 5.0 8.0 0.00 0.83 0.83 100 1015.2
20260503220704 72 52 5.0 9.0 0.00 0.83 0.83 100 1014.2
20260503220204 72 68 6.0 13.0 0.00 0.83 0.83 100 1014.2
20260503214703 72 57 6.0 9.0 0.00 0.83 0.83 100 1014.2
20260503214204 71 52 9.0 12.0 0.00 0.83 0.83 100 1014.2
20260503213703 71 53 7.0 12.0 0.00 0.83 0.83 100 1014.2
20260503213204 71 60 7.0 13.0 0.00 0.83 0.83 100 1014.2
20260503211704 71 60 7.0 10.0 0.00 0.83 0.83 100 1015.2
20260503211205 71 48 7.0 13.0 0.04 0.83 0.83 100 1015.2
20260503210703 71 52 6.0 9.0 0.08 0.83 0.83 100 1015.2
20260503210204 71 59 5.0 12.0 0.12 0.83 0.83 100 1015.2
20260503204704 70 40 5.0 8.0 0.16 0.83 0.83 100 1015.2
20260503204204 70 57 6.0 9.0 0.16 0.83 0.83 100 1015.2
20260503203703 70 56 6.0 8.0 0.16 0.83 0.83 100 1015.2
20260503203204 70 24 3.0 8.0 0.24 0.83 0.83 100 1015.2
20260503201703 70 47 6.0 9.0 0.71 0.83 0.83 100 1015.2
20260503201205 70 64 5.0 9.0 0.67 0.79 0.79 100 1015.2
20260503200704 70 69 7.0 12.0 0.67 0.75 0.75 100 1015.2
20260503200204 70 36 5.0 8.0 0.67 0.71 0.71 100 1015.2
20260503194704 67 50 4.0 6.0 0.67 0.67 0.67 100 1015.2
20260503194204 67 44 6.0 9.0 0.67 0.67 0.67 100 1015.7
20260503193704 67 52 6.0 8.0 0.67 0.67 0.67 100 1016.2
20260503193205 67 37 5.0 12.0 0.59 0.59 0.59 100 1016.2
20260503191705 68 29 5.0 8.0 0.12 0.12 0.12 100 1016.2
20260503191204 68 27 2.0 3.0 0.12 0.12 0.12 100 1015.4
20260503190705 69 69 5.0 6.0 0.08 0.08 0.08 100 1015.2
20260503190205 69 28 5.0 8.0 0.04 0.04 0.04 100 1015.2
20260503184703 69 51 5.0 8.0 0.00 0.00 0.00 100 1015.2
20260503183704 70 66 3.0 8.0 0.00 0.00 0.00 100 1016.2
20260503183205 70 45 6.0 8.0 0.00 0.00 0.00 100 1016.2
20260503181704 70 39 5.0 8.0 0.00 0.00 0.00 100 1016.2
20260503181204 70 29 6.0 8.0 0.00 0.00 0.00 100 1016.2
20260503180704 70 49 7.0 10.0 0.00 0.00 0.00 100 1016.2
20260503180204 70 34 5.0 8.0 0.00 0.00 0.00 100 1016.2
20260503174705 71 55 6.0 10.0 0.00 0.00 0.00 100 1016.2
20260503174204 71 60 7.0 10.0 0.00 0.00 0.00 100 1016.2
20260503173204 71 56 7.0 10.0 0.00 0.00 0.00 99 1016.2
20260503171704 72 43 6.0 10.0 0.00 0.00 0.00 96 1016.2
20260503171204 72 58 5.0 8.0 0.00 0.00 0.00 97 1016.2
20260503170704 72 22 7.0 10.0 0.00 0.00 0.00 97 1016.2
20260503170204 72 34 7.0 10.0 0.00 0.00 0.00 95 1016.2
20260503160203 73 37 5.0 9.0 0.00 0.00 0.00 90 1016.2
20260503150704 74 47 6.0 8.0 0.00 0.00 0.00 87 1016.2
20260503150204 74 16 5.0 8.0 0.00 0.00 0.00 86 1016.2
20260503140204 71 14 5.0 7.0 0.00 0.00 0.00 97 1016.2
20260503131204 71 23 3.0 7.0 0.00 0.00 0.00 99 1015.2
20260503130705 71 24 4.0 9.0 0.00 0.00 0.00 98 1015.2
20260503120204 70 10 6.0 10.0 0.00 0.00 0.00 100 1014.2
20260503110703 69 16 2.0 3.0 0.00 0.00 0.00 100 1014.2
20260503110204 69 9 4.0 8.0 0.00 0.00 0.00 100 1014.2
20260503100205 69 1 3.0 10.0 0.00 0.00 0.00 100 1013.2
20260503090204 69 10 3.0 7.0 0.00 0.00 0.00 100 1013.2
20260503081205 69 339 5.0 6.0 0.00 0.00 0.00 100 1013.2
20260503080704 69 349 2.0 6.0 0.00 0.00 0.00 100 1013.2
20260503080204 69 353 3.0 8.0 0.00 0.00 0.00 100 1013.2
20260503071705 70 331 4.0 9.0 0.00 0.00 0.00 99 1013.2
20260503071207 70 340 5.0 6.0 0.00 0.00 0.00 99 1013.2
20260503070704 70 331 7.0 8.0 0.00 0.00 0.00 98 1013.2
20260503070204 70 349 3.0 9.0 0.00 0.00 0.00 98 1013.2